Boone, IA

6:25 AM CDT on October 18, 2017 (GMT -0500)
Boone Municipal

Weather History for KBNW - November, 2012

Change the Weather History Date:

Saturday, November 17, 2012

  Actual Average Record
Temperature  
Mean Temperature 48 °F -  
Max Temperature 63 °F 46 °F 73 °F (2001)
Min Temperature 32 °F 26 °F -6 °F (1959)
Degree Days  
Heating Degree Days 18    
Moisture  
Dew Point 32 °F    
Average Humidity 62    
Maximum Humidity 87    
Minimum Humidity 28    
Precipitation  
Precipitation 0.00 in - - ()
Sea Level Pressure  
Sea Level Pressure 30.31 in    
Wind  
Wind Speed 8 mph (SSE)    
Max Wind Speed 21 mph    
Max Gust Speed 25 mph    
Visibility 10 miles    
Events      
Averages and records for this station are not official NWS values.
T = Trace of Precipitation, MM = Missing Value Source: NWS Daily Summary

Daily Weather History Graph

Daily Weather History Graph

Search for Another Location

Airport or City:

Trip Planner

Search our weather history database for the weather conditions in past years. The results will help you decide how hot, cold, wet, or windy it might be!

Date:

Astronomy

Nov. 17, 2012 Rise Set
Actual Time 7:08 AM CST 4:52 PM CST
Civil Twilight 6:38 AM CST 5:22 PM CST
Nautical Twilight 6:04 AM CST 5:56 PM CST
Astronomical Twilight 5:31 AM CST 6:29 PM CST
Moon 10:53 AM CST (11/17) 9:03 PM CST (11/17)
Length of Visible Light 10h 44m
Length of Day
9h 43m
Waxing Crescent, 20% of the Moon is Illuminated
Nov 17
Waxing Crescent
Nov 20
First Quarter
Nov 28
Full
Dec 6
Last Quarter
Dec 13
New

Hourly Weather History & Observations

Time (CST) Temp. Windchill Dew Point Humidity Pressure Visibility Wind Dir Wind Speed Gust Speed Precip Events Conditions
12:15 AM 37.8 °F 31.8 °F 32.0 °F 80% 30.36 in 10.0 mi SSE 8.1 mph - N/A   Clear
12:35 AM 37.6 °F 31.6 °F 32.0 °F 80% 30.36 in 10.0 mi SSE 8.1 mph - N/A   Clear
12:55 AM 36.7 °F 31.2 °F 31.6 °F 82% 30.36 in 10.0 mi SSE 6.9 mph - N/A   Clear
1:15 AM 36.7 °F 32.9 °F 31.6 °F 82% 30.36 in 10.0 mi SSE 4.6 mph - N/A   Clear
1:35 AM 36.0 °F 31.1 °F 31.3 °F 83% 30.36 in 10.0 mi SSE 5.8 mph - N/A   Clear
1:55 AM 35.8 °F 30.9 °F 31.1 °F 83% 30.36 in 10.0 mi SSE 5.8 mph - N/A   Clear
2:15 AM 35.6 °F 32.8 °F 31.1 °F 84% 30.36 in 10.0 mi SSE 3.5 mph - N/A   Clear
2:35 AM 35.4 °F - 30.9 °F 84% 30.37 in 10.0 mi Calm Calm - N/A   Clear
2:55 AM 35.6 °F 32.8 °F 31.1 °F 84% 30.37 in 10.0 mi SE 3.5 mph - N/A   Clear
3:15 AM 35.8 °F 33.0 °F 31.5 °F 84% 30.36 in 10.0 mi South 3.5 mph - N/A   Clear
3:35 AM 35.6 °F 32.8 °F 30.4 °F 81% 30.36 in 10.0 mi SSE 3.5 mph - N/A   Clear
3:55 AM 33.8 °F 29.6 °F 30.0 °F 86% 30.36 in 10.0 mi SSE 4.6 mph - N/A   Clear
4:15 AM 32.9 °F - 29.5 °F 87% 30.36 in 7.0 mi Calm Calm - N/A   Clear
4:35 AM 32.0 °F 26.4 °F 28.0 °F 85% 30.36 in 10.0 mi SE 5.8 mph - N/A   Clear
4:55 AM 32.0 °F 26.4 °F 28.6 °F 87% 30.35 in 10.0 mi ESE 5.8 mph - N/A   Clear
5:15 AM 32.7 °F 28.3 °F 29.3 °F 87% 30.35 in 7.0 mi SE 4.6 mph - N/A   Clear
5:35 AM 33.3 °F 28.9 °F 29.8 °F 87% 30.35 in 7.0 mi SE 4.6 mph - N/A   Clear
5:55 AM 33.1 °F 28.7 °F 29.5 °F 87% 30.35 in 7.0 mi SE 4.6 mph - N/A   Clear
6:15 AM 34.2 °F 28.2 °F 30.6 °F 87% 30.35 in 7.0 mi SE 6.9 mph - N/A   Clear
6:35 AM 34.7 °F 30.6 °F 30.7 °F 85% 30.35 in 10.0 mi SSE 4.6 mph - N/A   Clear
6:55 AM 34.3 °F 30.2 °F 30.4 °F 85% 30.35 in 7.0 mi SE 4.6 mph - N/A   Clear
7:15 AM 34.2 °F 31.2 °F 30.6 °F 87% 30.35 in 7.0 mi SSE 3.5 mph - N/A   Clear
7:35 AM 34.7 °F 30.6 °F 31.1 °F 87% 30.36 in 7.0 mi SSE 4.6 mph - N/A   Clear
7:55 AM 36.9 °F 31.4 °F 32.4 °F 84% 30.36 in 7.0 mi SSE 6.9 mph - N/A   Clear
8:15 AM 38.3 °F 33.2 °F 33.1 °F 81% 30.36 in 10.0 mi SSE 6.9 mph - N/A   Clear
8:35 AM 39.2 °F 33.6 °F 34.2 °F 82% 30.36 in 10.0 mi SSE 8.1 mph - N/A   Clear
8:55 AM 41.4 °F 35.7 °F 35.6 °F 80% 30.36 in 10.0 mi SSE 9.2 mph - N/A   Clear
9:15 AM 42.8 °F 38.0 °F 36.5 °F 78% 30.36 in 10.0 mi SSE 8.1 mph - N/A   Clear
9:35 AM 44.2 °F 39.7 °F 37.0 °F 76% 30.36 in 10.0 mi SSE 8.1 mph - N/A   Clear
9:55 AM 46.6 °F - 37.4 °F 70% 30.36 in 10.0 mi SSE 10.4 mph - N/A   Clear
10:15 AM 49.6 °F - 38.1 °F 65% 30.35 in 10.0 mi SSE 12.7 mph 18.4 mph N/A   Clear
10:35 AM 52.7 °F - 37.8 °F 57% 30.35 in 10.0 mi South 11.5 mph - N/A   Clear
11:55 AM 60.1 °F - 33.8 °F 37% 30.32 in 10.0 mi South 16.1 mph 20.7 mph N/A   Clear
12:15 PM 60.4 °F - 34.2 °F 37% 30.31 in 10.0 mi SSE 18.4 mph - N/A   Clear
12:35 PM 61.3 °F - 33.4 °F 35% 30.30 in 10.0 mi South 16.1 mph 23.0 mph N/A   Clear
12:55 PM 62.6 °F - 32.2 °F 32% 30.29 in 10.0 mi South 17.3 mph 25.3 mph N/A   Clear
1:15 PM 63.1 °F - 31.1 °F 30% 30.28 in 10.0 mi SSE 16.1 mph 23.0 mph N/A   Clear
1:35 PM 63.5 °F - 30.6 °F 29% 30.28 in 10.0 mi South 17.3 mph 23.0 mph N/A   Clear
1:55 PM 62.8 °F - 29.3 °F 28% 30.27 in 10.0 mi South 17.3 mph 24.2 mph N/A   Clear
2:15 PM 62.6 °F - 30.4 °F 30% 30.26 in 10.0 mi South 15.0 mph 24.2 mph N/A   Clear
2:35 PM 62.6 °F - 30.2 °F 30% 30.26 in 10.0 mi SSE 19.6 mph 25.3 mph N/A   Clear
2:55 PM 62.6 °F - 29.8 °F 29% 30.26 in 10.0 mi SSE 19.6 mph 25.3 mph N/A   Clear
3:15 PM 62.6 °F - 30.4 °F 30% 30.26 in 10.0 mi SSE 15.0 mph 24.2 mph N/A   Clear
3:35 PM 61.7 °F - 30.4 °F 31% 30.26 in 10.0 mi SSE 20.7 mph 24.2 mph N/A   Clear
3:55 PM 60.8 °F - 30.7 °F 32% 30.26 in 10.0 mi South 15.0 mph 21.9 mph N/A   Clear
4:15 PM 58.8 °F - 33.1 °F 38% 30.26 in 10.0 mi SSE 13.8 mph - N/A   Clear
4:35 PM 57.7 °F - 32.2 °F 38% 30.26 in 10.0 mi South 13.8 mph - N/A   Clear
4:55 PM 55.9 °F - 32.5 °F 41% 30.26 in 10.0 mi South 10.4 mph - N/A   Clear
5:15 PM 53.8 °F - 33.4 °F 46% 30.26 in 10.0 mi SSE 9.2 mph - N/A   Clear
5:35 PM 53.1 °F - 33.1 °F 47% 30.26 in 10.0 mi SSE 12.7 mph - N/A   Clear
5:55 PM 52.2 °F - 33.3 °F 49% 30.26 in 10.0 mi SSE 11.5 mph - N/A   Clear
6:15 PM 52.3 °F - 32.9 °F 48% 30.26 in 10.0 mi SE 11.5 mph - N/A   Clear
6:35 PM 50.5 °F - 33.3 °F 52% 30.26 in 10.0 mi SE 10.4 mph - N/A   Clear
6:55 PM 50.4 °F - 33.1 °F 52% 30.26 in 10.0 mi SE 9.2 mph - N/A   Clear
7:15 PM 48.9 °F - 33.1 °F 54% 30.26 in 10.0 mi SE 9.2 mph - N/A   Clear
7:35 PM 47.8 °F - 33.3 °F 57% 30.26 in 10.0 mi SE 9.2 mph - N/A   Clear
7:55 PM 48.2 °F - 33.4 °F 57% 30.26 in 10.0 mi SE 10.4 mph - N/A   Clear
8:15 PM 49.5 °F - 33.6 °F 54% 30.26 in 10.0 mi SE 12.7 mph - N/A   Clear
8:35 PM 48.6 °F - 33.8 °F 57% 30.26 in 10.0 mi SE 11.5 mph - N/A   Clear
8:55 PM 48.6 °F - 33.8 °F 57% 30.27 in 10.0 mi SE 11.5 mph - N/A   Clear
9:15 PM 48.9 °F - 33.6 °F 56% 30.26 in 10.0 mi SE 12.7 mph - N/A   Clear
9:35 PM 48.4 °F - 33.6 °F 57% 30.26 in 10.0 mi SE 11.5 mph - N/A   Clear
9:55 PM 48.2 °F - 33.3 °F 56% 30.26 in 10.0 mi SSE 12.7 mph - N/A   Clear
10:15 PM 47.7 °F - 33.1 °F 57% 30.26 in 10.0 mi SSE 10.4 mph - N/A   Clear
10:35 PM 46.4 °F 42.4 °F 33.1 °F 60% 30.26 in 10.0 mi SSE 8.1 mph - N/A   Clear
10:55 PM 46.6 °F - 33.6 °F 61% 30.26 in 10.0 mi SE 8.1 mph - N/A   Mostly Cloudy
11:15 PM 47.5 °F - 33.6 °F 59% 30.26 in 10.0 mi SE 9.2 mph - N/A   Overcast
11:35 PM 48.2 °F - 33.1 °F 56% 30.26 in 10.0 mi SSE 10.4 mph - N/A   Overcast
11:55 PM 48.2 °F - 33.1 °F 56% 30.26 in 10.0 mi SE 11.5 mph - N/A   Overcast